Wind_Speed
20 19 20 19 20 21 22 22 20 20 23 26 28 30 32 33 34 35 35 34 33 29 23 24 25 22 24 24 21 19 17 19 20 19 19 20 18 18 22 20 18 19 17 14 13 11 7 6 9 11 10 11 6 15 27 28 31 32 30 28 26 23 21
19 19 19 19 20 22 22 21 20 21 23 26 28 31 32 33 34 34 34 34 32 25 21 25 27 26 25 24 23 20 19 21 23 22 22 22 21 21 22 20 19 18 17 15 16 14 8 6 7 7 6 6 7 10 19 23 25 29 30 30 27 23 20
20 20 20 20 22 23 23 22 20 21 24 27 29 31 33 34 34 33 33 31 26 20 21 27 29 27 24 23 23 21 21 24 26 26 24 22 21 21 20 19 17 15 12 10 10 10 8 6 5 5 6 4 4 10 18 20 20 24 28 28 26 22 20
21 21 22 23 24 24 24 22 20 21 25 28 30 32 34 34 34 33 30 26 22 22 26 30 28 24 21 22 23 23 24 27 28 27 26 24 21 20 22 20 17 15 12 10 10 9 6 5 5 6 5 5 6 9 19 21 17 18 24 26 24 21 19
20 21 23 24 24 24 24 22 20 22 25 28 31 34 34 34 33 32 28 26 27 28 30 31 28 24 21 22 24 25 28 31 30 28 27 27 23 22 23 22 20 17 15 15 16 13 10 10 7 6 2 8 8 9 19 24 16 13 18 23 21 19 19
19 20 21 22 23 23 22 20 20 22 24 27 31 33 33 32 31 31 29 29 30 31 32 31 28 26 23 24 26 28 30 31 31 29 28 27 25 24 23 22 21 18 15 15 15 15 15 14 9 2 4 9 6 7 17 23 18 14 16 19 17 16 17
19 19 20 21 22 21 20 19 19 22 24 26 29 31 31 31 30 30 30 30 30 31 32 31 30 28 26 26 28 30 31 31 30 29 28 28 27 26 25 23 22 19 18 18 14 14 15 13 9 3 8 8 5 6 11 16 18 14 10 12 14 14 15
18 17 18 19 20 20 19 18 18 21 24 26 29 30 30 31 31 30 29 29 30 31 31 31 31 30 29 29 30 30 31 31 30 30 30 29 28 28 27 25 23 21 21 21 15 12 13 14 13 8 15 9 4 6 6 10 16 13 8 8 11 13 15
16 17 17 18 19 19 19 18 17 20 23 26 29 31 30 31 30 30 29 29 31 32 32 32 31 31 31 30 29 30 32 32 30 30 31 31 30 30 29 27 25 23 24 24 16 9 9 13 14 10 20 16 7 7 6 7 8 7 9 8 5 10 14
17 17 17 18 19 19 19 18 17 18 22 27 29 30 30 30 30 30 30 30 32 33 32 33 32 31 31 30 29 29 31 31 31 31 31 32 32 31 30 28 28 26 26 27 18 7 6 9 9 12 23 23 18 11 6 6 4 2 7 8 4 9 15
17 17 17 18 18 19 20 20 18 19 22 26 27 29 30 30 30 30 31 31 33 33 33 32 32 32 32 32 31 30 31 31 31 32 33 33 33 32 30 29 30 28 26 26 20 9 1 5 6 14 24 23 20 17 11 7 4 3 8 10 6 11 16
17 17 17 17 17 19 20 21 20 20 21 24 26 28 29 29 29 30 31 32 33 34 34 32 33 32 32 32 32 32 33 31 30 32 34 34 33 33 31 30 30 29 26 25 19 12 6 5 10 19 24 18 17 24 25 14 5 5 12 9 6 12 18
17 17 17 17 17 18 19 20 21 21 20 21 23 26 27 28 29 29 31 33 33 34 35 33 33 33 32 32 32 32 33 32 31 33 35 34 33 33 33 33 32 29 27 24 18 13 9 12 19 22 23 21 18 24 31 22 8 8 11 7 8 15 19
17 16 16 16 17 17 18 20 22 22 21 21 22 24 25 27 29 29 31 32 31 33 35 34 34 33 33 34 34 32 33 34 35 35 37 37 36 35 36 37 36 32 27 21 16 13 13 20 25 23 23 25 21 22 32 28 13 7 7 6 11 16 19
17 16 16 16 17 17 18 20 21 22 23 22 22 22 23 26 28 29 31 31 30 32 34 34 34 33 33 35 35 34 34 35 36 37 38 37 37 36 36 37 37 34 26 20 16 12 17 24 25 25 25 27 24 23 31 31 17 9 7 8 13 16 16
16 16 16 17 17 18 18 19 20 22 23 23 23 23 23 24 26 28 31 32 31 32 34 34 34 34 33 34 34 34 34 34 34 36 37 36 36 37 38 38 38 35 28 27 24 20 24 26 26 26 26 26 25 23 29 31 23 13 10 9 12 15 15
16 16 16 17 17 18 18 18 19 21 23 24 24 23 23 23 25 28 32 33 31 31 33 33 34 33 33 33 33 33 34 33 33 34 35 35 35 36 37 38 38 37 34 31 30 28 28 27 27 27 25 25 25 24 26 28 24 18 15 11 9 11 13
16 16 16 16 17 17 17 18 19 20 23 24 24 25 25 25 26 28 31 31 30 31 33 33 33 33 33 33 33 33 33 33 33 35 35 36 36 35 36 37 38 38 36 32 29 28 27 26 25 25 24 23 24 23 22 21 20 19 18 15 10 8 9
15 16 16 16 16 17 17 18 19 20 21 23 24 25 26 27 27 29 31 30 29 31 32 32 32 33 33 34 34 33 34 33 34 35 37 39 39 37 37 38 38 38 37 33 29 26 25 25 24 22 22 22 21 20 20 19 19 18 17 15 11 8 7
14 15 15 15 15 16 17 18 19 20 21 22 24 26 26 27 28 29 31 31 31 31 32 32 33 32 32 33 33 33 34 35 36 36 38 42 43 41 38 38 37 37 37 35 30 25 23 22 22 21 21 21 20 20 20 19 18 18 16 12 9 7 6
12 13 13 13 14 15 16 18 19 20 21 23 24 26 27 27 28 29 31 32 32 32 32 33 33 31 31 32 32 31 33 35 37 38 38 42 45 45 41 38 37 36 36 35 32 26 22 20 20 20 19 19 20 21 20 18 17 16 14 11 8 6 5
11 11 12 13 14 15 16 17 19 20 22 23 24 25 27 28 29 30 31 32 33 33 32 32 31 29 29 30 30 30 32 34 36 38 39 41 44 46 44 39 37 36 36 35 33 29 23 18 18 18 17 18 20 21 20 18 16 14 12 9 8 5 4
10 10 12 13 14 15 16 17 19 21 23 24 25 26 28 29 30 30 31 33 34 34 33 30 27 25 26 28 29 30 32 34 35 36 39 41 43 44 44 41 37 36 36 34 32 31 26 19 16 16 17 18 20 20 19 17 15 12 10 8 6 4 3
9 10 11 13 13 15 16 17 20 21 23 24 26 27 28 30 30 30 30 31 33 35 34 30 26 25 26 28 29 30 32 34 36 35 35 38 41 43 44 42 40 38 36 33 31 30 27 23 18 15 16 17 17 16 15 14 12 10 8 6 4 2 1
9 10 11 12 13 14 15 17 20 22 23 25 26 27 29 29 30 30 30 31 33 35 34 30 26 25 27 29 30 30 32 35 36 36 35 35 39 42 43 42 41 38 35 33 31 29 27 25 21 17 15 14 14 13 11 10 8 6 5 5 4 3 4
9 10 11 12 13 14 15 18 20 22 23 24 26 27 28 28 29 31 31 32 33 35 35 31 27 25 26 28 29 30 33 35 35 36 37 36 36 40 43 42 41 39 34 31 31 30 28 26 23 19 16 13 11 10 8 6 5 4 3 4 5 7 8
9 9 10 11 13 14 16 18 20 22 23 25 27 28 29 29 29 29 30 31 32 34 35 32 27 26 26 27 29 30 31 33 35 36 36 36 34 36 40 41 41 40 36 32 30 29 28 27 25 22 20 18 15 12 9 7 6 7 8 9 12 14 14
8 9 9 11 13 14 16 18 19 21 22 24 26 27 28 29 29 28 29 31 33 34 34 32 29 26 26 26 27 29 30 32 34 36 36 36 34 32 36 39 40 39 37 34 30 28 27 27 26 25 25 25 23 21 19 17 15 16 17 18 19 19 17
8 9 9 11 13 14 16 17 19 20 21 23 25 27 28 29 30 28 28 31 33 33 33 33 30 27 26 26 27 28 30 31 33 34 35 36 34 32 33 37 39 37 37 35 31 27 25 24 25 26 27 27 27 27 26 23 21 22 22 21 20 19 17
8 9 10 12 14 15 16 17 18 19 21 23 25 27 28 29 30 30 30 30 31 32 32 32 30 28 27 26 27 29 30 31 32 33 33 35 35 33 32 35 37 37 35 34 31 28 25 23 23 25 25 25 26 26 24 22 21 22 21 20 19 18 17
9 9 11 13 14 15 16 17 18 19 21 23 24 26 28 29 30 31 30 29 28 30 32 32 30 29 28 27 28 29 30 31 32 32 32 34 35 35 33 34 36 36 35 33 30 28 26 24 24 24 23 23 24 24 22 19 19 19 19 18 18 18 17
10 11 12 13 14 15 16 17 18 19 20 22 23 25 28 30 30 31 30 29 28 29 31 32 30 30 29 28 27 29 30 31 32 32 33 33 35 36 35 35 36 36 34 31 30 28 26 25 25 24 23 23 23 22 21 19 18 18 18 19 19 19 19
11 12 13 14 15 16 17 17 18 19 21 22 23 25 27 29 30 31 30 30 30 29 30 31 30 29 29 28 27 26 28 30 31 31 31 32 34 35 35 35 36 36 35 32 30 29 28 26 26 24 23 23 21 19 18 19 18 18 19 20 20 19 19
12 13 13 14 15 16 17 18 19 21 22 24 25 26 28 29 30 30 31 31 30 29 29 29 30 29 29 29 27 26 27 29 29 30 31 33 34 34 34 34 34 35 35 33 30 30 29 27 26 26 25 22 18 15 17 19 19 19 19 20 19 18 18
13 14 14 14 16 17 18 19 20 21 23 25 26 27 28 29 29 30 31 31 31 30 29 28 29 29 28 28 28 27 27 27 27 29 32 33 33 32 31 31 31 32 35 35 33 31 30 28 28 28 26 21 17 17 19 19 19 20 20 20 19 18 18
13 13 14 15 16 18 18 19 20 22 23 24 26 27 28 29 30 31 31 31 31 30 30 29 28 28 28 28 28 27 26 26 26 29 31 31 30 30 30 31 31 32 34 35 35 34 32 31 30 29 27 23 20 19 19 20 20 21 21 21 20 19 18
12 13 13 15 16 17 18 19 20 22 23 24 25 25 25 27 29 30 30 31 31 31 30 29 28 28 27 27 28 27 27 26 26 27 29 29 29 29 29 31 32 32 33 34 35 36 35 34 33 31 29 27 25 24 22 22 22 23 23 23 22 21 20
Wind_Direction
25 21 21 21 21 19 19 19 20 23 23 20 17 14 11 8 4 0 358 355 355 357 357 357 358 353 348 349 348 344 340 339 337 327 317 319 319 316 315 309 300 297 295 290 284 282 295 301 305 318 324 321 306 164 157 149 147 150 146 140 136 133 131
25 23 21 21 20 17 18 19 20 22 21 17 15 12 9 6 3 1 359 357 359 1 359 359 357 352 350 350 346 342 337 334 334 330 321 318 317 313 311 305 299 298 292 285 281 276 274 279 291 320 325 324 17 100 139 141 139 144 141 136 133 130 131
23 21 21 21 20 18 19 21 22 22 19 15 13 11 7 4 3 2 0 0 2 0 358 358 356 353 352 350 346 342 338 335 335 335 329 323 320 319 316 303 293 294 293 287 284 279 279 283 280 303 316 317 29 79 112 122 126 133 135 132 129 126 127
22 21 22 21 19 19 20 20 22 22 18 15 12 10 7 4 2 3 3 4 5 3 1 359 358 354 349 349 351 348 347 344 340 338 335 331 329 334 338 328 306 291 282 280 285 285 282 286 290 294 320 39 63 82 107 115 115 123 130 128 123 124 126
22 22 22 21 20 21 20 20 24 22 18 16 13 9 6 4 3 5 6 6 7 7 3 359 358 355 351 355 358 354 353 351 346 341 336 334 336 341 348 349 337 313 286 274 275 274 269 269 281 291 340 82 78 77 104 113 103 96 116 119 117 123 128
21 21 22 22 23 24 23 25 27 24 20 16 13 9 6 5 7 8 7 7 7 6 3 0 359 357 356 1 3 360 358 355 349 345 340 340 346 346 346 350 350 339 322 305 284 270 267 268 273 293 79 90 100 89 96 106 100 83 95 110 118 123 125
18 19 22 24 27 28 28 31 32 27 23 18 13 8 5 7 10 9 9 8 7 7 5 3 1 360 1 4 5 4 2 358 353 351 349 349 351 350 348 350 351 350 346 340 320 285 270 262 257 196 109 86 92 105 91 97 101 92 84 107 126 129 129
18 19 23 27 30 32 30 32 33 27 23 18 12 7 6 10 11 8 9 9 9 9 8 6 3 1 4 5 4 4 3 2 357 356 354 351 350 350 350 352 353 355 353 349 339 305 276 259 253 191 139 121 87 107 99 90 98 102 109 122 135 140 140
22 23 26 30 34 35 31 32 32 25 19 16 10 7 9 13 11 9 9 10 12 11 9 9 5 3 5 5 4 3 2 3 359 358 356 352 351 351 350 351 354 358 357 353 347 320 276 251 250 197 152 144 126 119 111 94 89 100 124 129 138 146 142
28 29 31 34 37 38 34 32 28 20 15 12 10 9 11 14 13 12 11 11 12 12 10 10 7 7 8 7 5 2 1 1 359 359 358 353 352 352 350 352 355 357 357 357 358 337 249 223 236 200 167 152 137 133 119 112 107 60 129 138 143 151 147
33 34 35 37 38 37 34 32 26 18 13 9 9 13 14 14 13 13 13 12 11 11 12 10 8 8 9 9 7 3 1 2 359 358 359 355 354 353 351 353 357 357 356 357 4 10 227 200 209 186 169 152 137 135 127 121 106 82 148 158 162 164 157
37 37 40 39 37 36 33 29 24 18 11 6 9 14 15 13 12 14 16 13 10 12 13 11 8 7 8 8 7 5 4 4 0 358 359 358 356 353 352 354 355 356 356 358 7 27 55 140 155 157 154 145 136 134 130 128 115 137 164 171 168 169 161
39 39 41 39 37 36 31 26 21 16 12 8 9 13 14 14 15 15 15 12 10 13 14 12 10 8 9 9 7 4 3 4 3 360 359 360 358 355 354 355 355 356 359 2 12 36 73 129 137 139 141 137 135 133 128 123 119 153 171 171 151 160 160
39 39 38 37 36 33 28 24 20 17 17 15 12 11 12 14 16 15 13 11 11 13 14 14 12 10 9 9 8 5 3 5 6 3 1 1 0 358 356 356 358 0 3 9 19 44 95 128 131 130 132 130 129 129 127 123 123 149 163 150 145 154 159
38 36 35 34 34 30 25 22 20 18 20 19 15 13 10 11 14 14 13 11 11 14 16 15 14 12 9 9 8 6 5 6 7 6 4 3 1 0 359 359 2 5 14 33 40 66 115 127 125 122 123 124 123 125 129 131 134 138 129 133 146 153 158
34 32 33 34 32 28 24 21 21 21 20 19 17 15 11 9 12 14 15 14 12 13 15 15 15 15 12 10 8 7 7 8 8 8 7 5 3 3 4 5 7 14 33 52 56 76 110 118 117 117 118 122 124 125 132 138 139 135 123 125 145 152 153
32 31 32 31 29 28 25 22 23 23 21 19 18 18 16 15 15 17 19 18 13 12 14 13 14 16 14 12 11 10 9 10 11 12 10 8 7 8 9 10 14 24 41 55 60 75 97 107 113 118 120 124 126 125 131 138 139 138 131 123 133 148 150
34 33 31 30 29 29 27 25 24 24 22 20 20 20 21 21 20 20 21 19 12 12 14 12 12 14 15 16 17 14 11 12 15 17 16 14 14 14 16 17 21 30 41 51 60 73 87 97 106 115 119 121 124 123 127 134 137 137 132 126 125 140 149
35 33 31 32 33 31 28 25 24 25 24 22 22 22 23 24 23 22 22 19 14 13 15 13 12 15 18 20 20 17 15 17 20 21 22 21 21 22 25 25 27 33 40 48 58 70 83 92 98 106 112 115 119 122 124 128 133 133 129 125 121 129 143
34 33 34 36 36 32 28 26 25 27 28 26 25 24 25 25 24 24 23 22 19 17 17 16 16 18 22 22 19 18 18 20 23 25 26 27 28 30 31 32 32 35 40 45 53 66 80 90 96 101 107 114 119 123 123 124 128 128 122 115 108 114 128
33 34 36 36 34 30 28 29 29 29 32 31 28 27 26 25 25 26 26 25 24 22 22 21 18 17 20 21 19 19 21 22 26 29 28 30 34 34 34 37 37 38 42 47 53 63 76 89 98 102 110 119 124 126 125 125 125 122 116 106 97 99 100
33 35 36 35 32 30 30 32 33 34 35 34 32 29 28 28 27 27 27 28 28 27 27 24 20 17 19 21 21 21 24 26 28 30 30 31 36 37 37 40 43 44 47 52 56 62 71 85 98 106 114 121 125 127 128 127 124 122 117 108 102 100 83
34 36 38 35 31 30 33 36 38 38 38 36 33 31 31 30 29 27 27 28 28 29 28 24 22 23 25 28 27 26 28 31 31 32 32 31 34 38 40 42 46 50 54 56 57 60 66 75 91 108 117 120 123 125 126 126 125 124 120 110 111 121 112
37 40 40 36 31 31 35 39 41 41 40 37 34 33 33 31 29 27 27 28 28 29 28 26 26 30 33 35 35 31 31 33 34 33 33 31 30 35 40 43 45 50 52 54 57 59 62 69 80 96 109 113 116 117 117 120 124 127 123 112 111 115 68
42 45 43 38 32 33 37 41 44 43 40 38 35 35 34 32 29 28 28 29 30 29 28 28 31 34 37 40 40 37 36 36 36 35 35 33 30 32 38 42 44 47 49 52 57 59 59 63 70 81 92 100 104 106 106 107 109 112 109 104 98 60 16
47 49 47 40 34 36 42 46 47 45 41 39 38 36 35 32 30 29 29 29 30 29 29 30 33 36 40 44 44 42 41 40 38 38 38 37 33 31 36 39 41 44 48 52 58 61 61 62 66 73 81 84 85 90 98 103 99 81 56 60 68 60 44
51 55 50 42 39 43 50 53 51 47 44 42 39 37 35 33 32 30 28 29 31 31 29 29 34 38 41 46 48 46 45 43 41 40 40 41 37 31 33 37 38 40 43 47 52 59 63 65 67 71 75 75 73 72 77 78 78 72 64 67 71 68 61
56 61 53 43 44 50 55 56 54 50 47 45 42 39 36 34 33 31 29 29 32 32 29 30 35 39 40 46 50 50 48 45 44 43 41 42 40 33 32 37 40 40 42 43 46 55 64 67 70 73 74 74 74 74 75 73 75 80 80 78 76 73 69
62 64 54 47 50 56 58 58 55 52 50 48 45 42 39 36 34 33 32 31 31 30 29 30 35 38 41 45 50 52 51 48 45 43 41 42 43 38 33 35 40 43 42 42 45 54 64 70 73 73 71 72 72 75 78 79 81 85 83 78 76 74 71
71 66 55 53 58 62 61 59 55 51 50 49 47 44 42 39 37 36 36 34 29 28 29 30 33 38 41 44 48 51 51 50 48 44 42 41 44 44 37 35 40 44 43 42 43 50 61 69 70 69 68 68 68 70 73 77 82 86 84 80 78 75 70
75 68 62 64 67 68 65 61 56 53 50 49 48 46 44 43 42 40 39 36 31 29 29 30 33 37 40 42 47 49 50 51 49 46 44 43 45 46 43 40 42 44 43 43 44 46 52 60 65 66 66 68 65 61 61 66 76 85 85 80 77 70 63
76 72 71 73 74 72 69 65 59 56 53 52 51 50 47 46 44 41 40 39 37 33 32 31 33 36 38 41 45 48 50 51 48 44 42 43 45 46 46 45 45 45 44 46 48 48 48 53 59 61 65 67 62 53 53 60 68 77 79 75 70 62 55
78 77 78 80 80 76 73 69 64 60 57 55 54 53 50 48 46 43 41 41 41 37 34 33 35 37 39 42 44 48 51 51 47 43 41 42 43 44 45 45 45 46 47 48 51 52 51 52 56 59 62 63 55 50 60 70 73 77 78 73 69 63 56
82 82 83 83 82 78 73 69 65 62 59 57 54 53 51 49 47 45 43 43 44 43 39 37 38 39 41 43 44 48 52 51 48 46 46 45 43 42 42 42 43 46 49 50 52 56 56 56 59 60 60 60 58 64 77 81 81 83 81 75 72 67 61
87 86 86 84 81 77 72 68 65 63 61 58 55 52 50 49 48 46 44 44 44 45 44 44 43 42 44 47 48 50 53 53 51 51 51 48 44 42 41 41 43 47 51 52 54 57 58 60 62 63 61 63 71 82 87 87 85 82 78 74 71 64 55
90 88 86 83 80 76 71 67 64 62 61 59 57 54 50 49 48 46 44 43 42 43 45 47 48 47 47 50 52 53 55 55 55 56 55 50 45 44 44 45 47 51 55 55 56 56 58 60 62 63 65 66 70 76 83 86 83 78 73 70 65 56 45
94 91 88 84 80 76 71 66 62 61 59 59 58 55 51 50 49 46 44 43 43 42 43 44 48 50 51 53 56 57 59 59 59 60 59 54 49 48 48 49 50 53 56 58 57 57 57 57 57 60 63 66 67 68 70 70 69 68 66 61 54 47 40
Height
835 834 832 831 829 826 824 822 821 819 817 815 813 810 808 806 803 801 798 794 791 789 787 784 782 780 778 775 773 770 767 765 763 760 756 753 750 748 746 745 743 741 741 740 739 738 736 730 725 724 725 724 724 723 723 725 727 729 732 735 738 741 744
836 835 833 831 829 827 825 823 822 820 818 816 814 812 809 807 805 801 798 795 791 790 788 785 783 780 778 775 773 770 768 765 762 760 756 753 750 746 744 742 741 739 738 738 737 735 735 733 728 726 726 725 726 727 727 729 731 733 734 736 739 742 744
836 835 833 832 830 828 826 824 823 821 819 817 815 813 811 808 805 802 799 796 793 792 790 787 783 780 777 775 772 770 767 765 761 758 755 752 748 745 742 741 739 737 736 735 735 734 733 732 730 728 727 727 729 731 731 733 737 739 739 739 740 743 745
837 835 834 832 830 829 827 825 824 822 820 818 816 814 811 809 806 803 800 798 796 794 791 788 784 781 778 775 772 769 767 764 760 757 754 751 747 743 741 739 737 736 735 734 733 733 733 732 730 728 728 729 732 733 733 737 741 743 743 742 741 744 747
838 836 835 833 832 830 829 827 825 823 821 819 817 814 812 810 807 804 802 800 797 795 792 788 785 782 779 775 772 769 766 762 760 757 753 750 746 743 740 738 736 734 733 732 731 731 731 731 730 729 729 732 734 735 736 738 743 747 746 744 744 746 749
839 838 836 835 834 832 830 829 827 825 823 821 819 816 814 812 809 806 803 801 798 795 792 789 785 783 779 775 772 769 766 762 759 757 754 750 747 743 740 737 734 732 731 729 729 729 729 728 728 729 731 733 735 737 738 739 744 750 749 746 748 750 750
840 839 838 836 835 834 832 830 829 827 825 823 821 819 816 813 810 807 805 802 799 796 793 790 786 783 779 776 772 769 766 763 760 757 754 750 747 743 740 736 733 731 730 728 727 726 726 726 727 728 731 735 737 738 739 742 745 750 752 752 753 753 752
842 840 840 838 837 835 833 832 831 829 827 825 823 821 818 814 811 808 806 803 800 797 794 790 786 783 779 775 772 770 766 763 759 757 754 750 746 742 739 735 733 731 728 726 724 723 723 724 725 726 728 732 738 741 741 744 747 751 756 756 755 755 755
843 842 841 839 838 836 835 833 832 830 829 827 824 822 818 815 812 810 807 804 801 798 795 791 787 784 780 776 773 770 767 763 760 757 754 750 745 742 738 734 732 729 727 724 722 721 720 721 722 724 725 726 732 739 743 746 750 753 756 757 757 757 756
844 843 842 840 839 838 836 835 833 832 830 828 825 823 820 817 814 811 808 805 802 798 795 791 787 784 781 778 775 772 768 764 760 757 753 749 745 741 737 734 730 728 725 722 720 718 718 719 720 722 724 723 725 732 740 748 753 755 756 758 758 758 757
845 844 843 842 840 839 837 836 834 833 831 829 827 824 821 818 815 813 809 806 803 800 796 792 788 784 781 778 775 773 770 765 761 756 753 749 744 741 737 733 730 727 724 721 718 717 716 717 718 720 723 725 725 727 734 746 754 756 757 759 759 758 758
847 846 844 843 842 840 839 837 836 834 832 830 828 825 822 819 817 814 810 807 804 800 797 793 788 785 782 779 776 774 770 766 762 757 752 749 745 740 736 733 730 726 723 720 718 716 716 716 718 720 724 727 728 729 732 741 751 756 757 759 759 759 760
848 847 846 844 843 841 840 839 837 836 834 832 830 827 824 821 818 815 812 809 805 801 798 794 789 786 783 781 778 775 771 767 763 758 753 750 746 741 736 733 729 726 723 720 718 716 717 718 720 722 726 728 731 733 734 738 748 755 758 759 759 760 762
850 849 847 846 845 843 842 841 839 837 835 833 831 828 826 823 820 817 814 810 807 803 799 795 791 787 784 782 779 777 773 768 764 759 754 750 746 742 737 733 729 726 723 720 718 717 718 720 722 726 728 730 734 736 736 740 748 754 757 759 760 761 763
851 850 849 847 846 845 843 842 840 838 836 834 832 829 827 824 821 818 815 812 809 805 801 797 793 789 786 784 781 778 774 770 765 761 756 752 748 744 739 733 729 726 723 721 719 718 720 723 725 728 731 733 737 739 739 743 748 753 756 758 760 762 764
853 851 850 849 848 846 845 843 841 840 837 835 833 830 828 826 823 820 816 813 809 806 803 799 795 792 789 786 783 779 776 773 769 764 760 756 751 746 741 736 731 728 725 724 723 721 723 726 729 732 735 737 740 742 743 745 748 752 756 759 762 763 765
854 853 852 851 849 848 846 845 843 841 839 836 834 831 829 826 824 820 817 814 811 808 804 801 797 794 791 789 786 782 779 776 772 768 764 760 755 750 745 740 736 733 730 729 729 728 730 732 734 736 739 741 742 745 747 748 750 752 756 760 763 765 766
856 854 854 852 851 849 848 846 844 842 840 838 835 833 830 827 824 822 819 816 813 810 806 803 799 796 793 790 788 784 781 778 775 771 767 763 758 754 750 746 742 739 737 736 736 736 737 738 740 741 743 744 746 748 750 752 754 755 758 761 764 766 768
857 856 855 854 852 851 849 848 845 843 841 839 837 834 831 829 826 823 820 818 816 812 808 804 801 798 795 792 789 786 783 780 777 774 770 766 761 757 753 751 748 746 744 743 743 743 744 744 745 746 747 749 750 752 754 756 758 759 761 763 766 768 769
859 858 857 856 854 853 851 849 847 845 843 841 838 836 833 831 828 825 822 819 817 814 810 806 803 800 797 794 792 789 785 782 779 776 773 769 765 761 758 756 754 752 750 750 749 749 750 750 750 751 752 753 754 755 757 759 761 762 764 766 767 769 770
861 860 859 857 856 855 853 851 849 847 845 842 840 838 835 833 830 828 825 822 818 815 811 807 804 802 800 797 795 792 788 784 781 778 776 773 769 765 762 760 758 757 756 755 754 754 754 754 754 755 757 757 758 759 760 762 763 765 766 768 769 770 771
862 862 861 859 858 856 855 853 851 849 847 844 842 840 838 835 832 829 827 824 821 818 814 811 809 807 804 801 798 795 791 787 783 780 778 776 773 769 766 764 762 761 760 759 758 757 758 758 758 759 760 760 761 762 763 764 766 767 768 769 770 771 772
864 863 862 861 859 858 856 855 853 851 849 847 845 842 840 837 834 832 829 826 823 820 818 816 814 811 807 804 801 798 794 790 786 783 781 779 777 774 772 770 767 765 763 763 762 762 762 762 762 762 763 763 764 765 765 767 768 769 770 771 772 773 773
866 865 864 863 861 859 858 856 854 853 851 849 847 844 841 839 836 834 831 829 826 823 821 819 817 813 809 806 803 801 798 794 790 787 785 783 781 778 776 774 771 768 767 766 766 766 766 766 766 766 766 766 767 768 768 769 770 771 773 773 774 775 775
867 867 865 864 863 861 860 858 856 855 853 851 849 846 844 841 839 836 834 831 829 826 824 822 819 815 812 808 805 803 801 798 794 791 788 786 785 783 780 778 775 773 772 771 770 770 770 770 769 769 769 769 770 771 771 772 773 774 775 775 776 777 777
869 868 867 865 864 863 861 859 858 857 855 853 851 848 846 843 841 839 836 833 831 828 826 824 821 818 815 811 808 806 804 801 798 796 792 790 788 786 784 782 780 779 777 776 774 773 773 773 773 772 772 772 772 773 774 775 776 776 777 778 778 779 780
870 869 868 867 865 864 862 861 860 859 857 855 853 850 848 846 843 841 839 836 834 831 829 827 824 821 818 815 811 809 807 804 802 800 797 794 792 791 789 786 785 783 782 780 779 778 777 777 776 775 775 775 775 776 777 777 778 779 779 780 781 781 781
871 870 869 868 867 865 864 863 862 861 859 857 855 853 851 848 846 844 842 839 836 834 832 829 826 823 821 818 814 812 809 807 806 804 801 799 797 796 794 791 789 787 786 784 783 782 781 780 779 779 778 778 779 779 780 781 781 782 782 782 783 783 783
872 872 871 869 868 867 866 865 864 863 861 860 858 856 853 851 849 846 844 841 839 836 834 831 828 826 823 820 817 815 812 810 809 807 805 803 801 800 798 795 793 791 790 788 787 786 785 784 783 782 781 781 781 781 782 784 785 785 785 785 785 785 785
874 873 872 871 870 869 868 867 866 865 863 861 859 857 855 853 851 849 846 844 842 839 837 834 831 828 826 823 820 818 815 813 812 810 809 808 805 804 803 801 797 795 793 793 792 790 788 787 785 785 784 785 784 784 785 787 787 787 788 787 787 788 787
875 874 873 873 872 871 870 869 868 867 865 863 861 859 858 856 853 851 849 847 845 843 840 837 834 831 829 826 823 821 819 816 815 814 813 811 809 808 807 805 802 800 798 797 795 793 791 789 788 787 788 787 787 787 788 789 790 790 790 790 790 790 789
876 876 875 874 874 873 872 871 870 869 867 865 864 862 860 858 856 854 852 850 848 845 843 840 837 834 832 829 826 824 822 819 818 817 816 814 813 811 809 808 806 804 803 801 798 796 794 792 791 791 790 790 790 791 792 792 793 792 792 792 792 792 791
878 877 877 876 876 875 874 873 872 871 869 868 866 864 862 860 858 857 855 852 850 847 845 843 840 837 834 832 829 827 825 823 823 822 820 818 816 814 812 811 809 808 807 804 802 799 798 796 795 794 793 792 793 794 795 795 795 794 794 794 794 794 794
879 879 878 878 877 877 876 875 874 873 872 870 869 867 865 863 861 859 857 855 853 850 849 846 844 840 837 835 833 830 828 828 827 826 824 822 820 819 817 816 814 812 810 808 806 803 801 800 798 797 797 797 798 798 797 797 797 796 796 796 795 796 796
881 881 881 880 879 879 878 878 877 875 874 873 871 869 867 865 863 862 860 858 856 854 852 850 847 844 841 839 836 834 832 832 831 829 827 825 825 824 823 821 820 817 814 812 809 807 805 803 801 800 802 802 802 800 799 799 798 798 797 797 797 797 797
882 882 883 882 882 881 881 880 879 878 876 875 873 872 870 868 866 864 862 860 859 857 855 852 850 848 845 842 840 838 836 835 834 832 830 830 829 829 827 825 823 821 818 815 813 810 808 807 805 805 805 805 804 803 801 800 800 799 799 799 799 799 800
884 884 884 884 884 883 882 882 881 879 878 877 875 875 873 871 869 867 865 863 861 859 857 855 853 851 849 846 844 841 840 838 837 835 834 834 833 832 831 829 827 824 821 819 816 814 812 810 809 809 807 806 805 804 803 802 802 801 800 800 801 802 803